map of LLA home
LLA - Airport
Location
City:  Luleň, Norrbottens lńn, Sweden
Name:Kallax
ICAO:ESPA
IATA:LLA

Details
Type:Airport (Aerodrome, Airfield)
Use:Public/Civil, Military
Latitude:65░32'38"N (65.543758)
Longitude:22░07'19"E (22.121989)
Datum:WGS 1984
Elevation:65 ft (20 m)
Variation:9.36░E (WMM2015 magnetic declination)
0.19░ annual change
Runways:1
Longest:10990 × 148 ft (3350 × 45 m), paved

Time
Time Zone:UTC+1 (DST+2)
Local Time:

Weather
METAR:ESPA 231320Z 03003KT 350V070 9999 FEW008 M13/M16 Q1037

Related Locations
Nearby:
Farthest:NZTB: 11363 mi / 18288 km
Terra Nova Bay [Mario Zucchelli Station], AQ

Find:

   beyond  
but within

Other Information
Maps:
NOTAMs:
Links:
Sources:

  
flag of Sweden   

Sectional Chart

Flight Planning
at skyvector.com

Satellite Image

Google Maps Satellite view

 

Copyright © 2004-2018 Karl L. Swartz. All rights reserved.
The Great Circle Mapper name and logo are trademarks of the Great Circle Mapper.
All other trademarks mentioned herein belong to their respective owners.
Please see credits for attibutions and further copyright information.

  Follow gcmap on Facebook Follow gcmap on Twitter Follow gcmap on Google+ GCmap on LinkedIn

hCard Microformat

Geo Microformat